Terminal Aerodrome Forecast
Issued by NWS North Platte, NE

Home | Current Version | Previous Version | Graphics & Text | Print | Product List | Glossary On
Versions: 1 2 3 4 5 6 7 8 9 10 11 12 13 14 15 16 17 18 19
000
FTUS43 KLBF 212300
TAFVTN
TAF
KVTN 212334Z 2200/2224 17015G24KT P6SM SCT150
     FM220400 18016KT P6SM SCT150
     FM220800 19010KT P6SM SCT007 OVC100
      TEMPO 2208/2212 4SM -SHRA BKN007 BKN030
     FM221200 21006KT 4SM BR OVC007
     FM221400 32009KT P6SM VCTS OVC030CB
     FM221600 32009KT P6SM BKN050=

USA.gov is the U.S. government's official web portal to all federal, state and local government web resources and services.